SCP
0 0 0 0 0 0 0 0 0 0 0 0 0 0 0 0 1 1 1 1 1 1 2 2 2 2 2 3 3 3 2 2 2 2 2 2 2 2 2 2 1 1 1 1 1 1 0 0 0
0 0 0 0 0 0 0 0 0 0 0 0 0 0 0 0 1 1 1 1 1 1 2 2 2 2 3 3 3 3 2 2 2 2 2 2 2 2 2 1 1 1 1 1 1 1 0 0 0
0 0 0 0 0 0 0 0 0 0 0 0 0 0 0 0 0 1 1 1 1 1 1 1 2 2 3 3 3 3 3 2 2 2 3 3 2 2 2 1 1 1 1 1 1 1 1 0 0
0 0 0 0 0 0 0 0 0 0 0 0 0 0 0 0 0 1 1 1 1 1 1 1 2 2 3 3 3 3 3 3 3 3 3 3 2 2 2 1 1 1 1 1 1 1 1 0 0
0 0 0 0 0 0 0 0 0 0 0 0 0 0 0 1 1 1 1 1 1 1 1 1 2 2 2 3 3 3 3 3 3 3 3 3 3 2 2 2 1 1 1 1 1 1 1 1 0
0 0 0 0 0 0 0 0 0 0 0 0 0 0 0 1 1 1 1 1 1 1 1 1 2 2 2 2 2 3 3 3 3 3 3 3 3 2 2 2 2 1 1 1 1 1 1 1 1
0 0 0 0 0 0 0 0 0 0 0 0 0 0 0 1 1 1 1 1 1 1 1 1 2 2 2 2 2 2 3 3 3 2 2 3 3 3 3 2 2 1 1 1 1 1 1 1 1
0 0 0 0 0 0 0 0 0 0 0 0 0 0 0 1 1 2 2 1 1 1 1 1 1 2 2 2 2 2 2 3 2 2 2 2 3 3 3 2 2 1 1 1 1 1 1 1 1
0 0 0 0 0 0 0 0 0 0 0 0 0 0 0 1 1 1 1 1 1 1 1 1 1 1 1 1 1 2 2 2 2 1 1 2 2 3 3 2 2 1 1 1 1 1 1 1 0
0 0 0 0 0 0 0 0 0 0 0 0 0 0 0 1 1 1 1 1 1 1 1 1 1 1 1 1 1 1 1 1 1 1 1 1 2 2 2 2 1 1 1 1 1 1 1 1 0
0 0 0 0 0 0 0 0 0 0 0 0 0 0 0 0 0 0 0 0 0 0 0 1 1 1 1 1 1 1 1 1 1 1 1 1 2 2 2 2 1 1 1 1 1 1 1 0 0
0 0 0 0 0 0 0 0 0 0 0 0 0 0 0 0 0 0 0 0 0 0 0 0 0 1 1 1 1 1 1 1 1 1 1 1 2 2 2 1 1 1 1 1 1 1 1 0 0
0 0 0 0 0 0 0 0 0 0 0 0 0 0 0 0 0 0 0 0 0 0 0 0 0 0 0 0 0 0 0 1 1 1 1 1 1 2 2 1 1 1 1 1 1 1 1 0 0
0 0 0 0 0 0 0 0 0 0 0 0 0 0 0 0 0 0 0 0 0 0 0 0 0 0 0 0 0 0 1 1 1 1 1 1 1 1 1 2 1 1 1 1 1 1 1 1 0
0 0 0 0 0 0 0 0 0 0 0 0 0 0 0 0 0 0 0 0 0 0 0 0 0 0 0 0 0 0 1 1 1 1 1 1 1 1 1 2 1 1 1 1 1 1 1 1 0
0 0 0 0 0 0 0 0 0 0 0 0 0 0 0 0 0 0 0 0 0 0 0 0 0 0 0 0 0 1 1 1 1 1 1 1 1 1 1 1 1 1 1 1 1 1 1 1 1
0 0 0 0 0 0 0 0 0 0 0 0 0 0 0 0 0 0 0 0 0 0 0 0 0 0 0 0 0 1 1 1 0 0 1 1 1 1 1 1 2 2 1 1 1 1 1 1 1
0 0 0 0 0 0 0 0 0 0 0 0 0 0 0 0 0 0 0 0 0 0 0 0 0 0 0 0 0 1 1 0 0 0 1 1 1 1 1 1 2 2 1 1 1 1 1 1 1
0 0 0 0 0 0 0 0 0 0 0 0 0 0 0 0 0 0 0 0 0 0 0 0 0 0 0 0 0 0 0 0 0 0 0 1 1 1 1 1 1 2 2 1 1 1 1 1 1
0 0 0 0 0 0 0 0 0 0 0 0 0 0 0 0 0 0 0 0 0 0 0 0 0 0 0 0 0 0 0 0 0 0 0 1 1 1 1 1 1 2 2 2 1 1 1 1 1
0 0 0 0 0 0 0 0 0 0 0 0 0 0 0 0 0 0 0 0 0 0 0 0 0 0 0 0 0 0 0 0 0 0 0 1 1 1 1 1 1 1 2 2 2 1 1 1 1
0 0 0 0 0 0 0 0 0 0 0 0 0 0 0 0 0 0 0 0 0 0 0 0 0 0 0 0 0 0 0 1 0 0 1 1 1 1 1 1 1 1 2 2 2 1 1 1 1
0 0 0 0 0 0 0 0 0 0 0 0 0 0 0 0 0 0 0 0 0 0 0 0 0 0 0 0 0 0 0 0 0 0 0 0 1 1 1 1 1 1 2 2 2 1 1 0 0
0 0 0 0 0 0 0 0 0 0 0 0 0 0 0 0 0 0 0 0 0 0 0 0 0 0 0 0 0 0 0 0 0 0 0 0 1 1 1 1 1 1 1 2 2 1 1 0 0
0 0 0 0 0 0 0 0 0 0 0 0 0 0 0 0 0 0 0 0 0 0 0 0 0 0 0 0 0 0 0 0 0 0 1 1 1 1 1 1 1 1 1 1 2 1 1 0 0
0 0 0 0 0 0 0 0 0 0 0 0 0 0 0 0 0 0 0 0 0 0 0 0 0 0 0 0 0 0 0 0 0 0 1 1 1 1 1 1 1 1 1 1 1 1 1 1 0
0 0 0 0 0 0 0 0 0 0 0 0 0 0 0 0 0 0 0 0 0 0 0 0 0 0 0 0 0 0 0 0 0 0 1 1 1 0 0 0 1 1 1 1 1 1 1 1 0
0 0 0 0 0 0 0 0 0 0 0 0 0 0 0 0 0 0 0 0 0 0 0 0 0 0 0 0 0 0 0 0 0 0 1 1 0 0 0 0 1 1 1 1 0 0 0 0 0
0 0 0 0 0 0 0 0 0 0 0 0 0 0 0 0 0 0 0 0 0 0 0 0 0 0 0 0 0 0 0 0 0 0 0 0 0 0 0 0 1 1 1 1 0 0 0 0 0
0 0 0 0 0 0 0 0 0 0 0 0 0 0 0 0 0 0 0 0 0 0 0 0 0 0 0 0 0 0 0 0 0 0 0 0 0 0 0 1 1 1 1 1 1 0 0 0 0
Wind_Speed
6 4 2 4 6 4 2 4 3 1 1 1 0 4 5 3 3 5 3 2 3 3 2 3 4 6 6 7 8 9 9 9 10 10 11 11 11 12 12 12 12 11 11 11 11 11 11 12 12
3 3 5 5 6 2 4 4 3 3 2 1 2 4 5 4 3 4 1 2 3 3 2 3 3 4 5 6 7 8 9 9 10 10 10 10 10 11 11 12 11 11 11 11 11 11 11 12 12
3 2 5 5 4 6 5 4 4 2 1 1 3 4 4 2 2 2 0 1 4 3 2 2 3 3 4 5 5 6 8 8 9 9 10 10 10 10 11 11 11 10 10 10 11 11 11 11 11
3 4 5 4 3 4 4 3 2 1 2 3 3 4 3 3 2 1 1 3 4 3 2 2 3 2 3 4 4 5 6 8 8 9 10 10 10 10 11 10 10 10 10 11 11 12 11 10 10
4 4 4 1 3 3 3 2 1 2 1 2 3 4 2 3 3 3 4 4 3 2 2 1 1 1 2 3 4 5 5 7 8 9 9 10 11 11 10 10 10 11 11 11 12 12 11 10 9
4 4 4 3 3 2 2 2 2 3 2 2 3 3 0 2 4 4 4 4 3 2 2 1 2 1 1 3 4 5 5 6 7 8 9 9 10 10 10 10 11 12 13 13 12 12 12 10 9
4 4 4 4 3 2 1 1 2 2 2 1 1 3 1 2 3 3 4 4 4 4 3 3 2 1 2 3 4 5 5 5 6 7 8 8 8 9 10 10 10 12 13 13 12 12 12 11 9
4 4 3 2 3 3 1 1 1 2 1 1 2 4 1 3 3 4 5 5 4 4 4 3 3 2 2 2 4 5 5 6 6 7 7 7 8 9 10 10 10 11 12 13 12 12 11 10 8
4 5 3 3 3 3 1 2 2 1 2 2 2 2 2 2 3 5 5 5 5 5 4 4 3 3 2 3 3 3 5 6 6 6 7 7 5 6 7 9 10 11 12 13 13 12 11 9 7
4 4 4 2 2 2 0 1 1 2 3 2 3 3 2 3 4 4 4 5 6 6 5 4 3 3 3 3 2 2 2 3 4 4 5 4 4 5 6 9 11 11 12 12 13 12 10 6 3
3 4 2 1 1 1 1 1 1 2 1 1 1 2 3 3 3 3 3 4 4 4 5 5 4 3 3 2 2 2 1 2 3 4 5 4 4 3 4 4 6 7 8 7 8 8 5 4 3
2 1 1 1 1 1 1 1 2 0 3 3 2 1 1 3 3 3 3 4 4 5 5 5 5 4 3 3 2 2 2 2 2 3 5 4 3 4 4 4 5 5 4 5 5 4 5 5 5
1 0 1 1 2 1 1 0 0 2 4 2 1 1 1 1 3 3 3 3 4 5 6 6 5 4 4 3 2 2 2 2 3 2 4 5 4 5 5 5 5 5 5 6 5 5 6 6 5
2 1 1 2 1 1 1 1 0 4 2 0 1 1 1 2 2 3 4 4 4 5 6 6 6 5 4 3 3 2 2 2 2 2 3 5 5 5 5 6 6 6 6 6 6 7 6 5 5
2 2 3 2 1 1 2 2 3 4 1 0 1 2 2 2 2 3 4 4 5 5 6 5 5 5 4 3 4 3 2 2 2 2 3 4 4 5 5 5 6 6 6 7 6 6 4 4 4
2 3 1 3 1 1 3 4 5 2 2 2 2 2 2 3 3 3 4 4 5 5 6 6 5 5 4 4 3 2 2 2 2 2 2 4 5 5 5 5 5 6 6 6 6 6 5 5 5
3 1 2 3 1 1 2 5 5 2 2 2 2 2 2 3 4 4 4 4 5 5 5 5 5 5 4 4 3 3 2 2 2 2 2 3 4 5 5 4 5 6 5 5 6 6 5 5 5
3 2 2 3 2 1 2 6 6 3 2 2 2 2 2 3 4 4 4 5 5 5 5 5 5 5 4 3 3 2 2 2 2 2 2 3 3 4 4 4 5 5 5 5 6 6 5 5 4
3 2 3 4 2 1 4 6 7 4 1 1 2 2 3 3 4 4 4 4 5 6 6 5 5 5 3 2 2 1 2 2 2 2 3 4 3 4 4 4 5 5 5 6 6 5 6 5 3
1 1 1 2 1 0 3 6 5 2 3 3 3 2 2 4 5 6 5 5 5 6 6 6 5 5 4 3 2 2 2 2 2 3 3 4 4 4 4 5 5 5 5 6 6 6 5 4 5
1 2 2 1 3 2 2 5 3 2 1 1 1 2 2 2 4 5 6 6 6 6 6 6 6 5 5 4 2 2 1 1 1 2 3 4 4 4 3 4 4 4 5 5 6 6 7 5 5
1 1 1 1 2 2 0 3 5 3 2 2 3 2 3 3 3 4 5 6 6 6 6 6 6 6 5 3 2 2 2 3 3 2 2 3 3 3 4 4 5 4 4 5 6 6 5 6 5
2 1 0 1 1 1 1 2 7 2 3 4 4 3 3 3 2 3 4 5 5 6 5 5 6 6 5 4 2 2 2 3 2 2 2 2 2 2 3 4 4 4 4 5 5 5 6 5 5
1 2 3 3 3 2 3 4 6 3 5 4 3 3 3 2 2 3 4 4 5 5 5 5 5 6 5 4 3 2 2 3 3 3 2 2 1 1 2 2 3 4 4 5 5 5 5 5 5
3 4 4 4 3 5 2 3 8 5 4 4 4 3 2 1 2 3 5 5 6 6 6 6 6 7 6 4 4 3 2 2 2 2 2 2 1 2 2 2 3 3 3 4 4 4 5 5 6
0 3 4 3 3 5 2 5 6 3 2 2 2 1 1 1 2 2 3 4 5 6 6 6 6 6 6 5 4 3 3 2 1 2 1 1 2 2 2 2 3 3 3 3 3 3 4 4 6
2 1 3 3 0 3 5 5 6 2 2 1 1 1 1 2 2 2 3 4 5 6 6 6 5 6 6 6 5 4 3 2 2 2 1 1 1 1 1 2 3 3 3 3 3 3 3 3 4
2 3 3 2 1 3 5 4 5 4 4 3 2 2 3 2 2 3 3 3 4 4 5 5 5 5 5 5 5 4 3 3 2 2 2 2 2 2 1 1 2 2 2 3 3 2 3 3 3
2 1 2 2 2 2 4 7 5 6 5 4 4 3 3 2 2 3 3 3 3 4 4 5 6 6 6 6 5 4 3 2 2 2 2 2 2 2 2 2 1 1 1 2 2 3 3 3 4
3 4 5 3 3 3 3 9 4 4 4 4 3 3 2 2 1 2 3 3 4 4 4 5 5 5 6 6 5 5 4 4 3 3 3 2 2 2 2 2 1 1 1 0 1 2 3 3 4
Wind_Direction
341 346 55 58 62 64 211 242 236 259 248 256 287 105 107 91 116 147 210 333 92 116 128 124 122 130 138 147 153 154 155 158 156 154 153 152 150 148 146 144 142 140 137 135 132 127 126 123 120
350 5 55 64 97 139 244 243 230 238 210 178 57 74 74 71 79 101 35 357 85 100 104 115 110 125 135 144 155 162 163 167 167 164 163 162 159 157 156 153 151 148 145 141 138 132 130 128 127
351 53 83 86 134 179 210 223 210 249 330 71 55 50 76 82 72 79 306 51 72 66 66 101 110 121 137 145 157 168 174 175 177 174 171 170 168 165 163 160 157 154 149 146 142 138 136 136 135
57 52 60 90 191 218 205 214 194 154 19 37 82 48 36 11 94 129 2 52 68 53 37 81 115 131 151 159 169 172 181 188 186 182 180 178 176 173 169 165 161 157 153 151 149 146 144 144 143
64 82 86 123 223 246 243 253 174 113 62 24 77 84 26 347 45 59 48 52 63 43 25 46 103 129 183 189 185 186 184 195 196 191 188 185 182 179 174 171 167 161 160 158 156 154 153 153 153
65 79 111 189 229 251 274 268 116 88 64 23 69 88 359 323 33 28 42 45 49 45 28 18 16 357 256 227 206 203 198 198 202 201 196 192 188 183 176 174 172 169 167 164 162 161 161 161 160
108 113 155 181 200 243 271 344 107 110 77 357 88 90 195 337 1 15 37 37 32 31 21 5 353 342 305 263 233 220 213 209 207 206 204 196 193 185 179 176 177 176 172 170 166 166 167 168 168
128 114 147 190 182 219 277 41 72 108 144 330 77 115 210 285 335 17 27 27 23 23 14 356 344 331 309 276 246 238 230 223 217 211 207 200 194 191 185 181 181 180 176 173 170 171 172 172 172
98 92 173 199 181 211 268 61 358 8 87 29 46 132 212 279 7 23 14 6 5 1 354 346 338 327 309 279 256 247 238 233 224 214 209 201 198 194 190 187 185 183 181 178 175 175 174 172 176
93 141 201 212 179 170 61 67 352 36 28 19 17 1 1 9 25 23 5 349 348 342 337 336 327 319 313 292 274 246 240 234 226 210 202 200 196 197 194 190 189 187 185 183 181 179 176 169 174
131 173 206 269 171 130 69 1 1 97 1 235 213 310 344 8 6 354 333 325 321 322 324 327 322 314 307 296 283 265 250 238 231 216 203 197 195 198 193 184 187 188 185 183 185 178 176 175 178
133 221 205 276 6 74 111 66 20 120 221 237 219 229 339 353 343 325 316 317 317 319 318 321 321 313 300 286 280 265 256 243 234 226 210 194 195 198 191 187 183 182 183 181 180 179 182 186 190
148 201 336 328 27 86 89 89 131 256 251 262 309 21 9 334 311 301 298 301 309 312 313 317 319 312 301 295 283 276 253 248 233 227 221 203 198 200 193 190 186 185 182 183 183 184 188 193 197
173 124 313 309 310 307 130 287 120 255 257 285 338 324 302 303 312 323 329 316 312 309 310 313 314 308 305 303 283 267 253 250 241 225 227 212 204 203 195 191 189 189 187 187 187 188 191 197 199
96 58 353 310 235 209 106 328 231 240 188 262 294 300 316 326 329 320 312 309 306 305 308 310 309 309 307 297 280 271 258 250 243 238 228 220 213 206 201 191 192 193 188 185 185 185 186 195 202
70 73 347 291 210 177 128 262 255 241 163 231 268 300 324 326 322 312 318 321 319 317 315 309 310 311 304 295 282 268 263 250 248 245 233 224 222 207 199 196 196 194 188 185 187 187 190 198 202
52 123 227 285 241 146 158 252 265 257 185 235 267 287 305 315 324 327 330 327 320 315 312 312 308 304 300 292 283 273 265 258 255 251 242 239 226 210 199 199 199 190 190 190 193 191 190 195 201
191 196 220 240 259 137 231 259 275 265 203 231 260 291 305 315 316 322 331 334 330 326 320 310 308 298 294 291 286 286 289 281 275 258 247 245 233 211 200 202 200 191 188 193 196 192 191 193 195
176 179 232 250 256 225 241 266 277 259 201 251 276 287 299 304 307 323 330 331 338 336 333 322 310 303 302 300 281 270 269 271 269 256 254 248 238 220 203 208 202 195 193 196 196 193 190 194 177
166 184 262 298 320 255 270 281 280 235 207 213 225 254 283 317 332 334 333 337 333 329 328 324 314 307 299 281 266 244 241 241 242 255 256 251 242 229 215 207 205 199 195 195 195 189 190 194 182
349 187 202 237 344 17 355 311 295 272 226 229 254 261 288 303 312 323 331 331 329 324 323 321 318 316 308 299 295 301 294 286 263 256 249 244 236 227 218 215 208 207 200 199 197 192 190 194 195
295 252 173 121 46 304 81 288 284 273 292 280 279 296 295 302 314 321 330 330 323 317 321 322 320 321 314 305 287 260 251 255 254 253 252 250 230 220 219 211 210 207 209 206 202 196 192 186 194
225 268 193 149 126 324 253 207 278 311 281 277 271 273 280 290 312 321 320 318 321 323 327 327 331 332 335 338 316 275 263 259 260 260 255 259 249 226 220 216 211 212 211 211 211 206 196 193 194
198 37 46 52 69 289 230 186 273 245 239 261 261 261 264 283 318 329 330 332 331 334 338 338 343 342 342 348 343 316 284 274 268 266 260 261 253 237 229 224 218 220 218 211 210 210 203 203 199
53 71 40 8 359 257 237 197 250 251 238 229 242 253 260 277 322 337 341 340 338 339 342 346 353 349 349 350 348 334 304 288 272 272 238 237 244 240 234 230 225 225 226 218 209 209 211 207 202
92 125 145 191 239 286 303 236 253 266 254 234 224 222 250 293 315 324 328 333 335 339 346 350 352 346 346 350 344 343 336 322 305 292 271 243 231 241 236 235 233 224 219 217 205 213 219 212 209
135 169 165 138 254 280 275 283 298 266 306 300 289 312 284 286 302 310 325 338 338 340 343 344 343 346 348 347 345 346 344 344 336 330 319 300 275 264 250 239 246 235 211 204 198 213 213 210 215
163 153 98 120 167 278 286 266 249 241 252 264 266 271 279 293 308 319 327 335 336 335 340 348 353 352 347 346 345 342 337 342 332 344 351 354 340 326 319 271 256 248 230 211 203 224 220 212 222
162 156 139 144 175 188 275 270 228 212 217 223 239 248 247 264 292 312 322 328 331 339 345 349 352 354 354 353 352 351 348 353 4 5 353 357 347 334 324 326 310 292 257 223 209 219 221 224 232
194 190 157 165 229 202 229 268 266 213 212 207 232 251 238 225 267 308 319 329 335 338 342 345 347 351 351 351 354 359 1 5 11 1 346 352 335 317 315 328 334 343 340 335 236 232 231 230 235